Back to catalog

STARLINK-31668

AliveCommunicationsVLEO
NORAD 59580·PAYLOAD·🇺🇸 United States

Launched Apr 23, 2024 from Cape Canaveral Space Force Station

Loading…

Next Passes (next 24 hours)

TLE

FreshSource: CelesTrak SupGP

Epoch: Sep 14, 2026, 21:28 UTC

1 59580C 24076S   26257.89493056  .00036508  00000+0  13225-2 0  2575
2 59580  43.0017  20.0059 0001504 278.5717 112.2317 15.27555769    17

Track STARLINK-31668 in real time with AllMySat

Download on the App Store